Weather in Jaco

Costa Rica     9°36′51″N   84°37′40″W
temp.,
°C
wind,
m/s
gust,
m/s
humid.,
%
clouds,
%
prec.,
mm/h
press.,
hPa
HPBL,
m
10 april, sat
sat1000:00+28se337598 8.1 1011223
03:00+27se4478100 3.6 1009291
06:00+27se5475100 6.4 1011551
09:00+28sse337498 0.0 1012685
12:00+28sw3375100 0.0 1010572
15:00+28ssw4474100 0.1 1008690
18:00+28ssw33733 0.1 1008619
21:00+28ssw117177 0.4 1010560
11 april, sun
sun1100:00+27wsw117420 2.4 1010246
03:00+27wsw117524 1.8 1008197
06:00+27nw117280 1.9 1009432
09:00+27nnw11716 0.0 1010438
12:00+28sw22701 0.0 1008352
15:00+28ssw447121 0.0 1006626
18:00+29sw33728 0.0 1007820
21:00+28ssw337367 1.9 1009397
12 april, mon
mon1200:00+28ssw227549 7.2 1009208
03:00+27wsw117327 3.1 1008262
06:00+28nw22733 3.2 1009486
09:00+28nw22735 0.0 1010485
12:00+28wsw337194 0.0 1008442
15:00+29sw44710 0.0 1006608
18:00+29sw33714 0.1 1007656
21:00+29ssw22716 0.1 1009540
13 april, tue
tue1300:00+28s11725 0.4 1009412
03:00+27e11750 1.9 100894
06:00+28ne21744 3.7 1009302
09:00+28nne00724 0.0 1011340
12:00+28ssw3372100 0.0 1009408
15:00+29ssw4470100 0.1 1007631
18:00+29ssw3370100 0.2 1008617
21:00+28ssw227262 0.3 1010186
14 april, wed
wed1400:00+28ssw117394 1.1 1009169
03:00+28n117326 0.8 1008308
06:00+28nne227243 0.9 1010429
09:00+28nnw33685 0.0 1011360
12:00+29sw33640 0.0 1009278
15:00+29sw54715 0.0 1007646
18:00+29sw337236 0.4 1008571
21:00+28sw227410 0.2 1010409